Location: Home
(42.5358°N, 72.7383°W)
Time: 06:48:26
(UTC-05:00)

Explorer 11/Cluster Stage 4 - Pass Details

Date: 09 December 2021
Orbit: 467 x 1255 km, 28.8° (Epoch: 25 January)

Event Time Altitude Azimuth Distance (km) Brightness Sun altitude
Rises 00:42:35 0° 233° (SW) 2,982 - -66.8°
Reaches altitude 10° 00:45:23 10° 215° (SW) 2,207 - -66.5°
Maximum altitude 00:49:03 19° 170° (S) 1,831 - -66.0°
Drops below altitude 10° 00:53:16 10° 127° (SE) 2,596 - -65.5°
Sets 00:56:55 0° 111° (ESE) 3,709 - -65.1°
